Weather in Meliorativnyy

Russia / Republic of Karelia     61°51′55″N   34°14′28″E
temp.,
°C
wind,
m/s
gust,
m/s
humid.,
%
clouds,
%
prec.,
mm/h
press.,
hPa
HPBL,
m
28 february, sun
sun2800:00−3w1398100 0.1 1015136
03:00−4wsw2496100 0.1 1014167
06:00−7sw2396100 0.0 101346
09:00−6ssw2295100 0.0 101359
12:00−2sw139499 0.0 1013260
15:00−1wsw359691 0.0 1014397
18:00−1wsw2696100 0.1 1015289
21:000w3898100 0.1 1016374
1 march, mon
mon100:00−1w3895100 0.0 1016326
03:00−2wsw5119586 0.0 1016327
06:000wsw6139682 0.0 1013550
09:00+1w5129691 0.0 1012615
12:00+1w51296100 0.0 1009718
15:00+2w71698100 0.0 1008833
18:00+1wnw61398100 0.2 1005757
21:00+1w6129099 0.3 1004839
2 march, tue
tue200:00+1wnw5138597 0.4 1004998
03:00−1wnw6158860 0.4 1004769
06:00−2wnw5148598 0.0 10031034
09:00−3wnw6148498 0.0 10051084
12:00−2nw61285100 0.1 10071054
15:00−1nw61085100 0.1 1009953
18:00−3nw4118796 0.0 1011737
21:00−5wnw3108972 0.0 1013262
3 march, wed
wed300:00−6wnw3119325 0.0 1014344
03:00−7wnw389614 0.0 1015218
06:00−7wnw399649 0.0 1015255
09:00−7wnw389559 0.0 1016231
12:00−3w489037 0.0 1015316
15:00−1w5108835 0.0 1013586
18:00−2wsw41187100 0.0 1010459
21:00−2wsw61488100 0.0 1006750
4 march, thu
thu400:000wsw61493100 0.4 1001980
03:00+1w71592100 0.5 9971002
06:000w71596100 0.5 9941270
09:00−3wnw61481100 2.8 9931230
12:00−4nw7148282 0.1 9941422
15:00−4nw6128290 0.3 9971345
18:00−7nw51187100 0.1 999827
21:00−10nw3119398 0.1 1001428